Location: İstanbul
(41.0082°N, 28.9784°E)
Time: 01:45:49
(UTC+03:00)

DOVE 4 - Pass Details

Date: 25 April 2024
Orbit: 582 x 778 km, 97.7° (Epoch: 28 May)

Event Time Altitude Azimuth Distance (km) Brightness Sun altitude
Rises 21:56:02 0° 25° (NNE) 2,920 ? -20.6°
Reaches altitude 10° 21:58:28 10° 38° (NE) 2,038 ? -20.9°
Enters shadow 22:00:39 22° 63° (ENE) 1,430 ? -21.2°
